Погода в Физули

Азербайджан     39°36′00″N   47°08′40″E
темп.,
°C
ветер,
м/с
пор.,
м/с
влажн.,
%
обл.,
%
осадки,
мм/ч
давл.,
гПа
погр.,
м
21 января, пт
пт2101:00−2юз3683100 0.0 102198
04:00−4зюз23846 0.0 102342
07:00−6юз34823 0.0 102551
10:00−3юз46750 0.0 1027167
13:00+1юз13770 0.0 1027274
16:00+1юв01824 0.0 1026177
19:00−3зсз22875 0.0 102610
22:00−4юз23824 0.0 102640
22 января, сб
сб2201:00−4юз347987 0.0 102556
04:00−4юз34786 0.0 102351
07:00−4юз34792 0.0 102252
10:00−1ююз35705 0.0 1022138
13:00+2юз357457 0.0 1019229
16:00+3юз238352 0.0 101787
19:00−1зюз248540 0.0 101747
22:00−2юз357995 0.0 101773
23 января, вс
вс2301:00−2юз237936 0.0 101729
04:00−2юз34775 0.0 101641
07:00−2юз237686 0.0 101639
10:00+1юз24670 0.0 1016130
13:00+4зюз12580 0.0 1015288
16:00+5юз12660 0.0 101497
19:00+1сз22720 0.0 101610
22:000юз32720 0.0 101623
24 января, пн
пн2401:00+1юз33690 0.0 101538
04:000юз33643 0.0 101542
07:000юз23620 0.0 101533
10:00+3зюз12610 0.0 101686
13:00+5с12520 0.0 1015369
16:00+6ссв22530 0.0 1015349
19:00+3сз11630 0.0 101710
22:00+2зюз11660 0.0 101813
25 января, вт
вт2501:00+2зюз22640 0.0 101919
04:00+2юз23625 0.0 102026
07:00+1ююз46640 0.0 102085
10:00+5юз35545 0.0 1021149
13:00+9юз22412 0.0 1021354
16:00+9ююв11380 0.0 1021622
19:00+6ююз11540 0.0 102311
22:00+4ююз33550 0.0 102530